Weather

Vsebine: Paragliding sitesCurrent conditionsCurrent conditions (amateur)Radar rainfal imageMeteo stationsPanoramic cameras


Current conditions (official report)

Show amateur stations

Click on a specific station to see its location

Location Weather conditions Temperature Wind Air pressure Last updated Geopedia
    °C direction speed (m/s) gusts (m/s) hPa    
Babno Polje 6   - - 2019-01-17 09:43:00
Babno Polje (756 m) 5   - - 2016-01-12 07:40:00
Bilje Nova Gorica 5   1 1 1016 2019-01-17 09:43:00
Bilje pri Novi Gorici 4   1 - 1016 2019-01-17 09:42:00
Blegoš 0   - - 2019-01-17 09:23:00
Bohinjska Češnjica 7   - - 2019-01-17 09:43:00
Boršt Gorenja vas 7   3 8 1014 2019-01-17 09:36:00
Bovec 5   1 4 1016 2019-01-17 09:37:00
Breginj 4   - - 2019-01-17 09:43:00
Bukovski vrh 3   - - 2019-01-17 08:33:00
Celje 9   5 - 1013 2019-01-17 09:42:00
Cerkniško jezero 6   - - 2019-01-17 09:44:00
Črnomelj 11   5 12 1014 2019-01-17 09:42:00
Davča 3   - - 2019-01-17 09:43:00
Dobliče Črnomelj 11   5 10 1014 2019-01-17 09:32:00
Dolenje Ajdovščina 9   1 4 2019-01-17 09:34:00
Gačnik 8   2 4 2019-01-17 09:43:00
Godnje 7   3 6 2019-01-17 09:43:00
Gornji Grad 8   - - 2019-01-17 09:43:00
Hočko Pohorje 7   - - 2019-01-17 09:43:00
Hrastnik 8   2 7 1013 2019-01-17 09:36:00
Idrija 8   - - 2019-01-17 09:43:00
Ilirska Bistrica 6   2 4 2019-01-17 09:36:00
Iskrba 7   2 5 2019-01-17 09:43:00
Jeronim 5   - - 2019-01-17 09:43:00
Jeruzalem 11   - - 2019-01-17 09:43:00
Jezersko 6   - - 2019-01-17 09:43:00
Juršče   - - 2016-09-13 14:33:00
Kamniška Bistrica 6   - - 2019-01-17 09:03:00
Kanin -5   - - 2019-01-17 09:43:00
Katarina nad Ljubljano 6   2 - 2019-01-17 07:42:00
Kočevje 8   - - 2019-01-17 09:43:00
Koper Kapitanija 11   4 7 1017 2019-01-17 09:34:00
Korensko sedlo 4   - - 2019-01-17 09:43:00
Kraj. park Goričko 6   3 6 2019-01-17 09:34:00
Kranj 8   - - 2019-01-17 09:43:00
Kredarica -7   14 31 2019-01-17 09:43:00
Krn 3   - - 2019-01-17 09:43:00
Krško 11   3 5 1014 2019-01-17 09:39:00
Krvavec -3   15 18 2019-01-17 09:43:00
Kubed 8   - - 2019-01-17 09:43:00
Kum 1   4 12 2019-01-17 09:43:00
Lendava 11   5 10 1011 2019-01-17 09:39:00
Let. E. Rusjana Maribor 9   6 9 1011 2019-01-17 09:34:00
Let. J. Pučnika Lj. 0   2 3 1011 2015-11-26 11:03:00
Let. J. Pučnika Ljubljana 8   4 5 1014 2019-01-17 09:43:00
Letališče Cerklje ob Krki 10   1 - 1013 2019-01-17 09:42:00
Letališče Edvarda Rusjana Maribor 9   4 - 1011 2019-01-17 09:42:00
Letališče Jožeta Pučnika Ljubljana 7   4 - 1014 2019-01-17 09:42:00
Letališče Lesce 7   2 - 1013 2019-01-17 09:42:00
Letališče Portorož 10   1 - 1016 2019-01-17 09:42:00
Lisca 3   7 13 2019-01-17 09:43:00
Lisca (943 m) 9   5 12 2016-03-29 14:02:00
Litija 8   - - 2019-01-17 09:43:00
Ljubljana 9   3 - 1014 2019-01-17 09:42:00
Logarska dolina 7   - - 2019-01-17 09:43:00
Logatec 7   - - 2019-01-17 09:43:00
Luka Koper 11   1 3 2019-01-17 09:35:00
Malkovec 8   4 8 1014 2019-01-17 09:37:00
Maribor 9   3 5 2019-01-17 09:43:00
Maribor - Tabor 9   2 3 2019-01-17 09:35:00
Marinča vas 9   - - 2019-01-17 09:43:00
Metlika 11   - - 2019-01-17 09:43:00
Mežica 0   - - 2019-01-17 09:43:00
Miklavž na Gorjancih 4   - - 2019-01-17 09:43:00
Murska Sobota 9   4 7 1011 2019-01-17 09:43:00
Nanos 1   2 6 2019-01-17 09:43:00
Nova Gorica 7   - 1 2019-01-17 09:36:00
Nova vas - Bloke 5   - - 2019-01-17 09:43:00
Novo mesto 11   4 6 1014 2019-01-17 09:43:00
Osilnica 9   - - 2019-01-17 09:43:00
Otlica 2   5 9 2019-01-17 09:33:00
Otlica (965 m) 7   4 7 2016-03-31 08:24:00
Park Škocj. jame 7   3 7 1016 2019-01-17 09:32:00
Pasja ravan 3   3 9 2019-01-17 09:43:00
Pavličevo sedlo 2   - - 2019-01-17 09:43:00
Piran-ocean. boja 16   3 6 2018-11-12 21:09:00
Planina pod Golico 3   - - 2019-01-17 09:43:00
Podčetrtek 10   2 5 1012 2019-01-17 09:36:00
Podnanos 9   2 3 2019-01-17 09:43:00
Postojna 6   5 9 1015 2019-01-17 09:43:00
Predel 1   - - 2019-01-17 08:03:00
Ptuj 10   5 11 2019-01-17 09:43:00
Ptuj - Terme -2   2 3 2017-01-19 14:35:00
Radegunda 6   - - 2019-01-17 09:43:00
Radenci 9   - - 1011 2019-01-17 09:34:00
Rateče 4   2 - 2019-01-17 09:42:00
Rateče (864 m) 5   3 7 2019-01-17 09:33:00
Ratitovec -2   17 22 2019-01-17 09:43:00
Ravne na Koroškem 2   1 3 2019-01-17 09:37:00
Rogaška Slatina 9   2 5 2019-01-17 09:43:00
Rogla -2   6 11 2019-01-17 09:46:00
Rogla (1492 m) -11   4 7 2016-01-18 10:32:00
Rudno polje 1   3 9 2019-01-17 09:43:00
Rudno polje (1347 m) -2   1 3 2015-10-20 07:36:00
Sevno 6   - - 2019-01-17 09:43:00
Slavnik 2   15 18 2019-01-17 09:43:00
Slovenj Gradec 0   - - 2019-01-17 09:42:00
Slovenske Konjice 10   - - 2019-01-17 09:43:00
Sviščaki 0   6 11 2019-01-17 09:43:00
Šebreljski vrh 2   - - 2019-01-17 09:43:00
Šmartno pri Slovenj Gradcu 1   1 3 2019-01-17 09:43:00
Tatre   - - 2019-01-17 09:43:00
Tolmin - Volče 3   1 1 2019-01-17 09:43:00
Topol 5   - - 2019-01-17 09:43:00
Trbovlje 8   4 10 2019-01-17 09:37:00
Trebnje 9   - - 2019-01-17 09:43:00
Trije Kralji na Pohorju 1   - - 2019-01-17 09:43:00
Trojane - Limovce 5   13 18 1013 2019-01-17 09:43:00
Uršlja gora -2   7 10 2019-01-17 09:43:00
Vedrijan 7   - - 2019-01-17 09:43:00
Velenje 9   - - 2019-01-17 09:43:00
Velike Lašče 6   3 6 2019-01-17 09:43:00
Vogel -2   3 11 2019-01-17 09:44:00
Vojsko 2   1 - 2019-01-17 07:42:00
Vrbanski plato -2   2 3 2016-12-07 11:23:00
Vrhnika 8   5 9 2019-01-17 09:43:00
Vršič -2   - - 2019-01-17 09:43:00
Zadlog 4   - - 2019-01-17 09:43:00
Zelenica -1   - - 2019-01-17 09:43:00
Zgornja Kapla 4   7 8 2019-01-17 09:43:00
Zgornja Radovna 0   - - 2019-01-17 09:43:00
Zgornja Sorica 4   - - 2019-01-17 09:43:00
Source: Slovenian Environmental Agency, meteo.si